Jefferson, NC

5:24 AM EST on November 19, 2017 (GMT -0500)
Ashe County

Weather History for KGEV - December, 2009

Change the Weather History Date:

Monday, December 14, 2009

  Actual Average Record
Temperature  
Mean Temperature 46 °F -  
Max Temperature 57 °F 48 °F 68 °F (1984)
Min Temperature 35 °F 26 °F 6 °F (2010)
Degree Days  
Heating Degree Days 19    
Moisture  
Dew Point 38 °F    
Average Humidity 73    
Maximum Humidity 93    
Minimum Humidity 55    
Precipitation  
Precipitation 0.00 in - - ()
Sea Level Pressure  
Sea Level Pressure 30.06 in    
Wind  
Wind Speed 4 mph (SSE)    
Max Wind Speed 12 mph    
Max Gust Speed 20 mph    
Visibility 8 miles    
Events Fog    
Averages and records for this station are not official NWS values.
T = Trace of Precipitation, MM = Missing Value Source: NWS Daily Summary

Daily Weather History Graph

Daily Weather History Graph

Search for Another Location

Airport or City:

Trip Planner

Search our weather history database for the weather conditions in past years. The results will help you decide how hot, cold, wet, or windy it might be!

Date:

Astronomy

Dec. 14, 2009 Rise Set
Actual Time 7:29 AM EST 5:11 PM EST
Civil Twilight 7:00 AM EST 5:40 PM EST
Nautical Twilight 6:28 AM EST 6:12 PM EST
Astronomical Twilight 5:57 AM EST 6:43 PM EST
Moon 5:54 AM EST (12/14) 3:36 PM EST (12/14)
Length of Visible Light 10h 39m
Length of Day
9h 41m
Waning Crescent, 3% of the Moon is Illuminated
Dec 14
Waning Crescent
Dec 16
New
Dec 24
First Quarter
Dec 31
Full
Jan 7
Last Quarter

Hourly Weather History & Observations

Time (EST) Temp. Windchill Dew Point Humidity Pressure Visibility Wind Dir Wind Speed Gust Speed Precip Events Conditions
12:01 AM 46.4 °F 41.1 °F 37.4 °F 71% 30.07 in 10.0 mi West 11.5 mph 19.6 mph N/A   Clear
12:22 AM 46.4 °F 41.9 °F 37.4 °F 71% 30.06 in 10.0 mi WNW 9.2 mph - N/A   Clear
12:41 AM 46.4 °F 41.9 °F 37.4 °F 71% 30.06 in 10.0 mi WNW 9.2 mph - N/A   Clear
1:02 AM 44.6 °F 42.2 °F 35.6 °F 71% 30.05 in 10.0 mi West 4.6 mph - N/A   Clear
1:21 AM 42.8 °F - 37.4 °F 81% 30.05 in 10.0 mi Calm Calm - N/A   Clear
1:42 AM 44.6 °F - 37.4 °F 76% 30.06 in 10.0 mi Calm Calm - N/A   Clear
2:00 AM 42.8 °F 39.3 °F 35.6 °F 76% 30.07 in 10.0 mi NW 5.8 mph - N/A   Clear
2:22 AM 41.0 °F 38.0 °F 35.6 °F 81% 30.07 in 10.0 mi ESE 4.6 mph - N/A   Clear
2:41 AM 44.6 °F - 35.6 °F 71% 30.07 in 10.0 mi Calm Calm - N/A   Clear
3:01 AM 42.8 °F 41.1 °F 37.4 °F 81% 30.08 in 10.0 mi ESE 3.5 mph - N/A   Clear
3:21 AM 41.0 °F - 37.4 °F 87% 30.07 in 10.0 mi Calm Calm - N/A   Clear
4:00 AM 42.8 °F - 35.6 °F 76% 30.06 in 10.0 mi Calm Calm - N/A   Clear
4:21 AM 41.0 °F - 35.6 °F 81% 30.07 in 10.0 mi Calm Calm - N/A   Clear
4:42 AM 35.6 °F 32.8 °F 32.0 °F 87% 30.08 in 0.5 mi SE 3.5 mph - N/A   Mostly Cloudy
5:00 AM 37.4 °F 34.9 °F 33.8 °F 87% 30.09 in 1.2 mi NNW 3.5 mph - N/A   Mostly Cloudy
5:21 AM 37.4 °F - 33.8 °F 87% 30.08 in 0.2 mi Calm Calm - N/A Fog Fog
5:41 AM 39.2 °F - 35.6 °F 87% 30.07 in 10.0 mi Calm Calm - N/A   Scattered Clouds
6:00 AM 39.2 °F - 33.8 °F 81% 30.08 in 10.0 mi Calm Calm - N/A   Clear
6:20 AM 39.2 °F - 33.8 °F 81% 30.08 in 10.0 mi Calm Calm - N/A   Clear
6:41 AM 39.2 °F 37.0 °F 33.8 °F 81% 30.08 in 10.0 mi SSW 3.5 mph - N/A   Clear
7:01 AM 35.6 °F 32.8 °F 30.2 °F 81% 30.09 in 1.2 mi WSW 3.5 mph - N/A   Haze
7:21 AM 37.4 °F - 32.0 °F 81% 30.09 in 10.0 mi Calm Calm - N/A   Clear
7:41 AM 41.0 °F - 30.2 °F 65% 30.10 in 10.0 mi Calm Calm - N/A   Clear
8:01 AM 41.0 °F - 30.2 °F 65% 30.10 in 10.0 mi Calm Calm - N/A   Clear
8:20 AM 41.0 °F - 30.2 °F 65% 30.11 in 10.0 mi Calm Calm - N/A   Clear
8:42 AM 42.8 °F - 30.2 °F 61% 30.11 in 10.0 mi Calm Calm - N/A   Clear
9:01 AM 44.6 °F - 30.2 °F 57% 30.12 in 10.0 mi Calm Calm - N/A   Clear
9:20 AM 42.8 °F - 32.0 °F 66% 30.13 in 10.0 mi Calm Calm - N/A   Clear
9:41 AM 44.6 °F - 33.8 °F 66% 30.13 in 10.0 mi Calm Calm - N/A   Clear
10:02 AM 46.4 °F - 35.6 °F 66% 30.13 in 10.0 mi Calm Calm - N/A   Clear
10:21 AM 48.2 °F - 37.4 °F 66% 30.13 in 10.0 mi SSE 4.6 mph - N/A   Clear
10:40 AM 50.0 °F - 39.2 °F 66% 30.13 in 10.0 mi SSE 4.6 mph - N/A   Clear
11:00 AM 51.8 °F - 41.0 °F 67% 30.11 in 10.0 mi SE 4.6 mph - N/A   Clear
11:20 AM 51.8 °F - 39.2 °F 62% 30.10 in 10.0 mi SE 5.8 mph - N/A   Clear
11:40 AM 53.6 °F - 41.0 °F 62% 30.10 in 10.0 mi SE 4.6 mph - N/A   Clear
12:00 PM 53.6 °F - 41.0 °F 62% 30.09 in 10.0 mi SE 3.5 mph - N/A   Clear
12:20 PM 55.4 °F - 41.0 °F 58% 30.07 in 10.0 mi Calm Calm - N/A   Clear
12:40 PM 55.4 °F - 41.0 °F 58% 30.06 in 10.0 mi SE 4.6 mph - N/A   Clear
1:00 PM 55.4 °F - 41.0 °F 58% 30.05 in 10.0 mi ESE 4.6 mph - N/A   Clear
1:20 PM 57.2 °F - 41.0 °F 55% 30.04 in 10.0 mi SE 4.6 mph - N/A   Clear
1:40 PM 57.2 °F - 41.0 °F 55% 30.03 in 10.0 mi SE 4.6 mph - N/A   Clear
2:00 PM 57.2 °F - 41.0 °F 55% 30.03 in 10.0 mi Calm Calm - N/A   Clear
2:21 PM 57.2 °F - 41.0 °F 55% 30.02 in 10.0 mi Calm Calm - N/A   Clear
2:41 PM 57.2 °F - 41.0 °F 55% 30.02 in 10.0 mi ESE 4.6 mph - N/A   Clear
3:00 PM 57.2 °F - 41.0 °F 55% 30.02 in 10.0 mi SE 3.5 mph - N/A   Clear
3:20 PM 55.4 °F - 41.0 °F 58% 30.02 in 10.0 mi Calm Calm - N/A   Clear
3:40 PM 55.4 °F - 42.8 °F 63% 30.01 in 10.0 mi SSE 3.5 mph - N/A   Clear
4:00 PM 53.6 °F - 42.8 °F 67% 30.01 in 10.0 mi Calm Calm - N/A   Clear
4:23 PM 53.6 °F - 42.8 °F 67% 30.01 in 10.0 mi SSE 4.6 mph - N/A   Clear
4:40 PM 51.8 °F - 42.8 °F 71% 30.02 in 10.0 mi SSE 3.5 mph - N/A   Clear
5:00 PM 50.0 °F - 42.8 °F 76% 30.02 in 10.0 mi SSE 4.6 mph - N/A   Clear
5:20 PM 50.0 °F - 42.8 °F 76% 30.02 in 10.0 mi SSE 3.5 mph - N/A   Clear
5:40 PM 48.2 °F - 42.8 °F 82% 30.02 in 10.0 mi Calm Calm - N/A   Clear
6:00 PM 48.2 °F - 42.8 °F 82% 30.02 in 10.0 mi Calm Calm - N/A   Clear
6:20 PM 48.2 °F - 42.8 °F 82% 30.02 in 10.0 mi Calm Calm - N/A   Clear
6:40 PM 46.4 °F - 42.8 °F 87% 30.03 in 7.0 mi Calm Calm - N/A   Clear
7:00 PM 44.6 °F - 41.0 °F 87% 30.03 in 0.8 mi Calm Calm - N/A   Scattered Clouds
7:20 PM 44.6 °F - 41.0 °F 87% 30.02 in 0.2 mi Calm Calm - N/A Fog Fog
7:40 PM 42.8 °F 41.1 °F 41.0 °F 93% 30.02 in 0.2 mi SW 3.5 mph - N/A Fog Fog
8:00 PM 42.8 °F - 41.0 °F 93% 30.02 in 0.2 mi Calm Calm - N/A Fog Fog
8:20 PM 42.8 °F - 41.0 °F 93% 30.01 in 0.2 mi Calm Calm - N/A Fog Fog
8:40 PM 42.8 °F - 39.2 °F 87% 30.01 in 0.2 mi Calm Calm - N/A Fog Fog
9:00 PM 42.8 °F - 41.0 °F 93% 30.02 in 0.2 mi Calm Calm - N/A Fog Fog
9:20 PM 42.8 °F - 39.2 °F 87% 30.01 in 0.2 mi Calm Calm - N/A Fog Fog
9:40 PM 42.8 °F - 39.2 °F 87% 30.00 in 0.5 mi Calm Calm - N/A Fog Fog
10:00 PM 44.6 °F 43.1 °F 41.0 °F 87% 30.01 in 10.0 mi SSW 3.5 mph - N/A   Scattered Clouds
10:20 PM 44.6 °F - 41.0 °F 87% 30.00 in 10.0 mi Calm Calm - N/A   Clear
10:40 PM 44.6 °F 42.2 °F 41.0 °F 87% 30.00 in 10.0 mi South 4.6 mph - N/A   Clear
11:00 PM 44.6 °F - 41.0 °F 87% 30.00 in 10.0 mi Calm Calm - N/A   Clear
11:20 PM 46.4 °F - 41.0 °F 81% 29.99 in 10.0 mi Calm Calm - N/A   Scattered Clouds
11:40 PM 50.0 °F - 39.2 °F 66% 30.00 in 10.0 mi Calm Calm - N/A   Scattered Clouds